Newark, NJ

7:35 PM EDT on July 24, 2017 (GMT -0400)
Newark International

Weather History for KEWR - June, 2013

Change the Weather History Date:

Tuesday, June 18, 2013

  Actual Average Record
Temperature  
Mean Temperature 74 °F 73 °F  
Max Temperature 83 °F 82 °F 97 °F (1993)
Min Temperature 65 °F 64 °F 49 °F (1950)
Degree Days  
Heating Degree Days 0 0  
Month to date heating degree days 8 15  
Since 1 June heating degree days 8 15  
Since 1 July heating degree days 4639 4870  
Cooling Degree Days 9 9  
Month to date cooling degree days 114 117  
Year to date cooling degree days 214 193  
Since 1 June cooling degree days 114 117  
Growing Degree Days 24 (Base 50)    
Moisture  
Dew Point 64 °F    
Average Humidity 74    
Maximum Humidity 93    
Minimum Humidity 54    
Precipitation  
Precipitation 0.14 in 0.14 in 1.45 in (2009)
Month to date precipitation 8.29 2.53  
Year to date precipitation 24.54 21.42  
Snow  
Snow 0.00 in 0.00 in 0.00 in (2002)
Month to date snowfall 0.0 0.0  
Since 1 July snowfall 29.5 28.5  
Snow Depth 0.00 in    
Sea Level Pressure  
Sea Level Pressure 29.86 in    
Wind  
Wind Speed 6 mph (NNE)    
Max Wind Speed 18 mph    
Max Gust Speed 21 mph    
Visibility 9 miles    
Events Rain    
T = Trace of Precipitation, MM = Missing Value Source: NWS Daily Summary

Daily Weather History Graph

Daily Weather History Graph

Search for Another Location

Airport or City:

Trip Planner

Search our weather history database for the weather conditions in past years. The results will help you decide how hot, cold, wet, or windy it might be!

Date:

Astronomy

Jun. 18, 2013 Rise Set
Actual Time 5:25 AM EDT 8:30 PM EDT
Civil Twilight 4:51 AM EDT 9:04 PM EDT
Nautical Twilight 4:09 AM EDT 9:46 PM EDT
Astronomical Twilight 3:18 AM EDT 10:36 PM EDT
Moon 3:11 PM EDT (6/18) 1:33 AM EDT (6/18)
Length of Visible Light 16h 12m
Length of Day
15h 05m
Waxing Gibbous, 70% of the Moon is Illuminated
Jun 18
Waxing Gibbous
Jun 23
Full
Jun 30
Last Quarter
Jul 8
New
Jul 15
First Quarter

Hourly Weather History & Observations

Time (EDT) Temp. Heat Index Dew Point Humidity Pressure Visibility Wind Dir Wind Speed Gust Speed Precip Events Conditions
12:51 AM 72.0 °F - 64.0 °F 76% 29.89 in 10.0 mi SW 6.9 mph - N/A   Partly Cloudy
1:51 AM 71.1 °F - 64.0 °F 78% 29.88 in 10.0 mi WSW 5.8 mph - N/A   Scattered Clouds
2:51 AM 71.1 °F - 64.0 °F 78% 29.88 in 10.0 mi NW 4.6 mph - N/A   Partly Cloudy
3:51 AM 71.1 °F - 64.9 °F 81% 29.87 in 10.0 mi Calm Calm - N/A   Partly Cloudy
4:51 AM 68.0 °F - 64.0 °F 87% 29.87 in 10.0 mi Calm Calm - N/A   Scattered Clouds
5:51 AM 66.0 °F - 62.1 °F 87% 29.88 in 10.0 mi North 5.8 mph - N/A   Mostly Cloudy
6:51 AM 68.0 °F - 64.0 °F 87% 29.89 in 8.0 mi North 5.8 mph - N/A   Mostly Cloudy
7:51 AM 72.0 °F - 64.0 °F 76% 29.89 in 9.0 mi Calm Calm - N/A   Mostly Cloudy
8:51 AM 75.0 °F - 64.9 °F 71% 29.90 in 8.0 mi Calm Calm - N/A   Mostly Cloudy
9:51 AM 77.0 °F - 64.0 °F 64% 29.88 in 8.0 mi Calm Calm - N/A   Mostly Cloudy
10:51 AM 80.1 °F 81.5 °F 63.0 °F 56% 29.87 in 10.0 mi Variable 3.5 mph - N/A   Mostly Cloudy
11:51 AM 81.0 °F 83.0 °F 66.0 °F 60% 29.86 in 9.0 mi Variable 6.9 mph - N/A   Mostly Cloudy
12:51 PM 82.0 °F 83.8 °F 64.9 °F 56% 29.84 in 10.0 mi Variable 4.6 mph - N/A   Overcast
1:51 PM 79.0 °F - 66.0 °F 64% 29.83 in 10.0 mi SSE 6.9 mph - N/A   Overcast
2:51 PM 77.0 °F - 64.9 °F 66% 29.83 in 10.0 mi ESE 4.6 mph - N/A   Overcast
3:51 PM 75.9 °F - 66.0 °F 71% 29.84 in 9.0 mi SE 6.9 mph - 0.00 in Rain Light Rain
4:22 PM 73.4 °F - 66.2 °F 78% 29.84 in 7.0 mi South 12.7 mph 19.6 mph 0.01 in Rain Light Rain
4:42 PM 69.8 °F - 64.4 °F 83% 29.83 in 10.0 mi South 10.4 mph 19.6 mph 0.01 in Rain Light Rain
4:51 PM 69.1 °F - 64.0 °F 84% 29.84 in 9.0 mi South 8.1 mph - 0.01 in Rain Light Rain
5:24 PM 69.8 °F - 64.4 °F 83% 29.86 in 6.0 mi NNW 8.1 mph - 0.01 in Rain Light Rain
5:51 PM 66.9 °F - 62.1 °F 84% 29.87 in 7.0 mi North 12.7 mph - 0.02 in Rain Light Rain
6:51 PM 66.9 °F - 61.0 °F 81% 29.86 in 7.0 mi North 3.5 mph - 0.09 in Rain Light Rain
7:43 PM 68.0 °F - 60.8 °F 78% 29.82 in 10.0 mi SE 4.6 mph - 0.02 in Rain Light Rain
7:51 PM 68.0 °F - 61.0 °F 78% 29.82 in 10.0 mi ESE 4.6 mph - 0.02 in Rain Light Rain
8:51 PM 66.0 °F - 62.1 °F 87% 29.84 in 10.0 mi North 11.5 mph - 0.00 in Rain Light Rain
9:51 PM 66.0 °F - 62.1 °F 87% 29.86 in 10.0 mi North 9.2 mph - 0.00 in   Overcast
10:40 PM 66.2 °F - 64.4 °F 94% 29.87 in 10.0 mi North 10.4 mph - N/A   Overcast
10:51 PM 66.9 °F - 64.0 °F 90% 29.88 in 10.0 mi North 13.8 mph - N/A   Overcast
11:51 PM 66.9 °F - 64.0 °F 90% 29.88 in 10.0 mi North 11.5 mph - N/A   Overcast